DELTA 1 DEB, 21327

Orbit data source: Space-Track

DELTA 1 DEB, 21327 is space debris in SSO originally from a launch on Thu, 12 Jun 1975 UTC launched from the Air Force Western Test Range (AFWTR). Debris objects in space refer to the collection of defunct objects orbiting the Earth. Examples of debris include non-operational satellites, rocket bodies, and fragments generated from explosions, collisions, or faulty payload assembly.

Loading next visibility...
Identifier
21327, 1975-052AV
Orbit
SSO
Country
Flag of USUS
Related business
Manufacturer
Unknown
Mission
Spacecraft
Bus & Motor
Unknown
Mass
Unknown
Launch date (UTC)
1975-06-12 (51 years ago)
Launch vehicle
Unknown
Launch site
Air Force Western Test Range (AFWTR)
Object type
Payload
Rocket body
Debris
Shape & HBR
Unknown shape, 0.2 m
Radar Cross Section
Medium (>0.1 m² and <1 m²)

Expand to show TLE details & history
Last TLE update: 9 hours ago

TLE from 9 hours ago
0 DELTA 1 DEB
1 21327U 75052AV  26124.75415529  .00000266  00000-0  97428-3 0  9994
2 21327  99.7480  32.8263 0281593 348.7329  75.3640 12.90008741645565
Epoch: 2026-05-04T18:05Z
TLE epoch observation values (Epoch: 2026-05-04T18:05:59.017Z)
Latitude
65.43139°
Longitude
-123.26395°
Altitude
1,263.804 km
Speed
7.253 km/s
True Right ascension
00h 43m 28s
True Declination
65° 18' 35"
Sunlit
Object was in daylight at epoch
Visualization orbit readout
Latitude
Unknown
Longitude
Unknown
Altitude
Unknown
Speed
Unknown
Apparent Right ascension
Unknown
Apparent Declination
Unknown
Sunlit
N/A
Visualization observer readout
Local Sidereal Time
11:21:29
Azimuth
Unknown
Elevation
Unknown
Doppler factor
Unknown
Orbital elements
Apogee altitude
1,515.05 km
Perigee altitude
1,082.691 km
Semi-major axis
7,677.007 km
Eccentricity
0.02816
Inclination
99.748°
RAAN
32.8263°
Arg. of periapsis
348.7329°
True anomaly
78.51253°
Mean anomaly
75.364°
Eccentric anomaly
76.93565°
Mean motion
3.22667 °/min
Orbital period
111.57 mins
BSTAR
0.00097428
Loading maneuver chart data...
Computing Atmospheric mass density...
Loading historical data...
Loading historical data...
Loading historical data...
Loading historical data...
Loading historical data...
Loading historical data...
Loading historical data...

Documentation

Showing up to 5 results
|